Regional Weather Roundup
Issued by NWS

Home | Current Version | Previous Version | Text Only | Print | Product List | Glossary Off
Versions: 1 2 3 4 5 6 7 8 9 10 11 12 13 14 15 16 17 18 19 20 21 22 23 24 25 26 27 28 29 30 31 32 33 34 35 36 37 38 39 40 41 42 43 44 45 46 47 48 49 50

000
ASUS43 KLSX 300057
RWRMO

WEATHER SUMMARY FOR MISSOURI
NATIONAL WEATHER SERVICE SPRINGFIELD MO
800 PM CDT MON MAY 29 2017

NOTE: "FAIR" INDICATES FEW OR NO CLOUDS BELOW 12,000 FEET WITH NO
       SIGNIFICANT WEATHER AND/OR OBSTRUCTIONS TO VISIBILITY.
       CURRENT SKY AND/OR WEATHER CONDITIONS ARE NOT AVAILABLE FOR
       CHILLICOTHE AND FARMINGTON.

MOZ001>031-035>038-043-044-053-054-300200-
...NORTHERN AND WESTERN MISSOURI...

CITY           SKY/WX    TMP DP  RH WIND       PRES   REMARKS
KANSAS CTY INT PTCLDY    75  49  39 W5        29.98S
LEE`S SUMMIT   CLEAR     75  47  36 W7        29.98S
ST JOSEPH      CLEAR     76  43  30 N9        29.98R
CHILLICOTHE      N/A     74  44  34 NW6       29.97R

$$
MOZ066>068-077>081-088>096-101>105-300200-
...SOUTHWEST MISSOURI...

CITY           SKY/WX    TMP DP  RH WIND       PRES   REMARKS
SPRINGFIELD    PTCLDY    76  59  55 N6        29.98S
JOPLIN         CLEAR     78  57  48 NW6       29.98S
BRANSON        CLEAR     77  55  47 W5        30.00R

$$
MOZ032>034-039>042-045>050-055>058-069>072-300200-
...CENTRAL MISSOURI...

CITY           SKY/WX    TMP DP  RH WIND       PRES   REMARKS
COLUMBIA       NOT AVBL
JEFFERSON CITY CLEAR     80  52  37 NW3       29.94R
ROLLA          CLEAR     72  55  55 W6        29.95S
SEDALIA        CLEAR     76  54  46 NW5       29.98R
WARRENSBURG    CLEAR     73  48  40 W5        29.97S

$$
MOZ051-052-059>065-300200-
...EAST CENTRAL MISSOURI...

CITY           SKY/WX    TMP DP  RH WIND       PRES   REMARKS
ST LOUIS INTL  PTCLDY    76  62  62 NW5       29.93R

$$
MOZ072>076-082>087-097>100-106>115-300200-
...SOUTH CENTRAL AND SOUTHEAST MISSOURI...

CITY           SKY/WX    TMP DP  RH WIND       PRES   REMARKS
CAPE GIRARDEAU NOT AVBL
POPLAR BLUFF   PTCLDY    77  61  57 S6        29.95R
WEST PLAINS    CLEAR     74  57  55 SW3       30.00R

$$



USA.gov is the U.S. government's official web portal to all federal, state and local government web resources and services.